| time (UTC) | temp F | wind direction | speed MPH | gust MPH | rain 1hr in | rain 24hr in | rain mn in | humidity % | barometer mb |
| 20260505210006 | 83 | 164 | 9.0 | 15.0 | 0.00 | 0.00 | 0.00 | 74 | 1007.5 |
| 20260505204505 | 82 | 144 | 11.0 | 18.0 | 0.00 | 0.00 | 0.00 | 77 | 1007.7 |
| 20260505203005 | 82 | 145 | 9.0 | 18.0 | 0.00 | 0.00 | 0.00 | 75 | 1008.0 |
| 20260505201507 | 83 | 128 | 5.0 | 18.0 | 0.00 | 0.00 | 0.00 | 76 | 1008.2 |
| 20260505200013 | 83 | 105 | 10.0 | 18.0 | 0.00 | 0.00 | 0.00 | 75 | 1008.3 |
| 20260505194506 | 83 | 181 | 6.0 | 15.0 | 0.00 | 0.00 | 0.00 | 75 | 1008.6 |
| 20260505193008 | 82 | 184 | 6.0 | 21.0 | 0.00 | 0.00 | 0.00 | 77 | 1008.8 |
| 20260505191507 | 81 | 153 | 10.0 | 17.0 | 0.00 | 0.00 | 0.00 | 78 | 1008.9 |
| 20260505190005 | 81 | 179 | 7.0 | 15.0 | 0.00 | 0.00 | 0.00 | 78 | 1009.0 |
| 20260505184506 | 82 | 208 | 6.0 | 12.0 | 0.00 | 0.00 | 0.00 | 77 | 1009.0 |
| 20260505183007 | 80 | 136 | 6.0 | 12.0 | 0.00 | 0.00 | 0.00 | 79 | 1009.1 |
| 20260505181508 | 80 | 153 | 8.0 | 16.0 | 0.00 | 0.00 | 0.00 | 80 | 1009.2 |
| 20260505180009 | 80 | 240 | 6.0 | 12.0 | 0.00 | 0.00 | 0.00 | 79 | 1009.2 |
| 20260505174505 | 81 | 160 | 6.0 | 13.0 | 0.00 | 0.00 | 0.00 | 79 | 1009.4 |
| 20260505170014 | 80 | 259 | 3.0 | 11.0 | 0.00 | 0.00 | 0.00 | 81 | 1009.8 |
| 20260505164505 | 79 | 228 | 4.0 | 12.0 | 0.00 | 0.00 | 0.00 | 82 | 1009.9 |
| 20260505163009 | 78 | 118 | 4.0 | 12.0 | 0.00 | 0.00 | 0.00 | 84 | 1009.8 |
| 20260505161509 | 77 | 264 | 6.0 | 14.0 | 0.00 | 0.00 | 0.00 | 83 | 1009.9 |
| 20260505153010 | 76 | 269 | 5.0 | 9.0 | 0.00 | 0.00 | 0.00 | 85 | 1009.7 |
| 20260505151509 | 75 | 160 | 4.0 | 12.0 | 0.00 | 0.00 | 0.00 | 86 | 1009.7 |
| 20260505123009 | 69 | 193 | 4.0 | 7.0 | 0.00 | 0.00 | 0.00 | 91 | 1009.0 |
| 20260505121514 | 69 | 165 | 4.0 | 6.0 | 0.00 | 0.00 | 0.00 | 91 | 1009.1 |
| 20260505120017 | 69 | 195 | 2.0 | 6.0 | 0.00 | 0.00 | 0.00 | 91 | 1009.0 |
| 20260505114515 | 68 | 255 | 1.0 | 6.0 | 0.00 | 0.00 | 0.00 | 91 | 1008.9 |
| 20260505113018 | 68 | 161 | 2.0 | 8.0 | 0.00 | 0.00 | 0.00 | 91 | 1008.7 |
| 20260505111514 | 68 | 194 | 3.0 | 7.0 | 0.00 | 0.00 | 0.00 | 91 | 1008.6 |
| 20260505101519 | 68 | 207 | 2.0 | 7.0 | 0.00 | 0.00 | 0.00 | 91 | 1008.8 |
| 20260505100017 | 68 | 195 | 2.0 | 8.0 | 0.00 | 0.00 | 0.00 | 91 | 1008.9 |
| 20260505094517 | 67 | 233 | 3.0 | 8.0 | 0.00 | 0.00 | 0.00 | 90 | 1008.7 |
| 20260505093019 | 67 | 200 | 5.0 | 9.0 | 0.00 | 0.00 | 0.00 | 90 | 1008.9 |
| 20260505091515 | 67 | 191 | 1.0 | 4.0 | 0.00 | 0.00 | 0.00 | 90 | 1009.2 |
| 20260505090019 | 68 | 145 | 1.0 | 4.0 | 0.00 | 0.00 | 0.00 | 90 | 1009.1 |
| 20260505084518 | 68 | 205 | 3.0 | 6.0 | 0.00 | 0.00 | 0.00 | 89 | 1009.2 |
| 20260505083018 | 68 | 152 | 2.0 | 7.0 | 0.00 | 0.00 | 0.00 | 89 | 1009.3 |
| 20260505081529 | 68 | 144 | 4.0 | 7.0 | 0.00 | 0.00 | 0.00 | 89 | 1009.5 |
| 20260505080020 | 68 | 169 | 2.0 | 8.0 | 0.00 | 0.00 | 0.00 | 88 | 1009.6 |
| 20260505074521 | 68 | 131 | 2.0 | 8.0 | 0.00 | 0.00 | 0.00 | 88 | 1009.7 |
| 20260505073018 | 68 | 217 | 2.0 | 7.0 | 0.00 | 0.00 | 0.00 | 88 | 1009.9 |
| 20260505071539 | 68 | 174 | 3.0 | 8.0 | 0.00 | 0.00 | 0.00 | 88 | 1009.9 |
| 20260505070021 | 69 | 185 | 5.0 | 11.0 | 0.00 | 0.00 | 0.00 | 87 | 1009.9 |
| 20260505064524 | 68 | 230 | 4.0 | 10.0 | 0.00 | 0.00 | 0.00 | 87 | 1010.0 |
| 20260505063015 | 69 | 243 | 3.0 | 13.0 | 0.00 | 0.00 | 0.00 | 87 | 1010.0 |
| 20260505061518 | 69 | 125 | 3.0 | 10.0 | 0.00 | 0.00 | 0.00 | 86 | 1010.2 |
| 20260505060020 | 69 | 134 | 6.0 | 13.0 | 0.00 | 0.00 | 0.00 | 86 | 1010.2 |
| 20260505054532 | 69 | 205 | 5.0 | 10.0 | 0.00 | 0.00 | 0.00 | 85 | 1010.4 |
| 20260505041516 | 70 | 212 | 5.0 | 12.0 | 0.00 | 0.00 | 0.00 | 83 | 1011.1 |
| 20260505040026 | 70 | 133 | 5.0 | 11.0 | 0.00 | 0.00 | 0.00 | 82 | 1011.2 |
| 20260505033030 | 71 | 140 | 7.0 | 17.0 | 0.00 | 0.00 | 0.00 | 81 | 1010.9 |
| 20260505031525 | 71 | 140 | 6.0 | 13.0 | 0.00 | 0.00 | 0.00 | 80 | 1011.1 |
| 20260505030024 | 71 | 184 | 6.0 | 14.0 | 0.00 | 0.00 | 0.00 | 80 | 1011.1 |
| 20260505021526 | 72 | 217 | 4.0 | 14.0 | 0.00 | 0.00 | 0.00 | 78 | 1010.8 |
| 20260505020024 | 73 | 229 | 4.0 | 12.0 | 0.00 | 0.00 | 0.00 | 78 | 1010.8 |
| 20260505014514 | 73 | 232 | 8.0 | 18.0 | 0.00 | 0.00 | 0.00 | 77 | 1010.5 |
| 20260505013019 | 74 | 155 | 7.0 | 15.0 | 0.00 | 0.00 | 0.00 | 77 | 1010.4 |
| 20260505011524 | 74 | 199 | 7.0 | 14.0 | 0.00 | 0.00 | 0.00 | 76 | 1010.3 |
| 20260505010024 | 75 | 186 | 6.0 | 13.0 | 0.00 | 0.00 | 0.00 | 75 | 1010.1 |
| 20260505004526 | 75 | 249 | 5.0 | 12.0 | 0.00 | 0.00 | 0.00 | 73 | 1010.2 |
| 20260505003018 | 76 | 143 | 7.0 | 15.0 | 0.00 | 0.00 | 0.00 | 72 | 1010.4 |
| 20260505001519 | 76 | 172 | 3.0 | 12.0 | 0.00 | 0.00 | 0.00 | 72 | 1010.3 |
| 20260505000028 | 76 | 188 | 6.0 | 15.0 | 0.00 | 0.00 | 0.00 | 72 | 1010.5 |
| 20260504234524 | 77 | 188 | 8.0 | 16.0 | 0.00 | 0.00 | 0.00 | 71 | 1010.7 |
| 20260504233024 | 77 | 207 | 8.0 | 19.0 | 0.00 | 0.00 | 0.00 | 70 | 1010.6 |
| 20260504231517 | 79 | 37 | 7.0 | 15.0 | 0.00 | 0.00 | 0.00 | 68 | 1010.8 |
| 20260504230020 | 78 | 124 | 7.0 | 18.0 | 0.00 | 0.00 | 0.00 | 69 | 1010.8 |
| 20260504224526 | 79 | 165 | 10.0 | 17.0 | 0.00 | 0.00 | 0.00 | 66 | 1010.8 |
| 20260504223024 | 79 | 113 | 3.0 | 12.0 | 0.00 | 0.00 | 0.00 | 69 | 1010.9 |
| 20260504221524 | 78 | 173 | 8.0 | 16.0 | 0.00 | 0.00 | 0.00 | 68 | 1011.1 |
| 20260504220022 | 79 | 162 | 8.0 | 14.0 | 0.00 | 0.00 | 0.00 | 67 | 1011.2 |
| 20260504214521 | 79 | 174 | 9.0 | 15.0 | 0.00 | 0.00 | 0.00 | 67 | 1011.4 |
| 20260504213008 | 79 | 131 | 6.0 | 16.0 | 0.00 | 0.00 | 0.00 | 65 | 1011.5 |
| 20260504211512 | 79 | 147 | 7.0 | 16.0 | 0.00 | 0.00 | 0.00 | 65 | 1011.8 |